map of ITM home
ITM - Airport
Location
City:  Osaka, Hyogo, Japan
Name:Itami
Old (Alt.):Osaka International Airport
ICAO:RJOO
IATA:ITM

Details
Type:Airport (Aerodrome, Airfield)
Use:Public/Civil, International (customs port of entry)
Latitude:3447'08"N (34.785528)
Longitude:13526'18"E (135.438222)
Datum:WGS 1984
Elevation:50 ft (15 m)
Variation:7.71W (WMM2015 magnetic declination)
-0.07 annual change
Runways:2
Longest:9840 × 200 ft (2999 × 61 m), paved

Time
Time Zone:UTC+9
Local Time:

Weather
METAR:RJOO 241100Z 23004KT 190V270 CAVOK 25/15 Q1008 RMK A2979
TAF:RJOO 241108Z 2412/2518 32004KT 9999 FEW025
BECMG 2500/2503 22007KT
BECMG 2509/2512 32004KT

Related Locations
Nearby:
Farthest:SSMT: 11992 mi / 19299 km
Mostardas, RS, BR

Find:

   beyond  
but within

Other Information
Maps:
NOTAMs:
Links:
Sources:

  
  • flag of Japan
  • flag of Hyogo
  

Sectional Chart

Flight Planning
at skyvector.com

Satellite Image

Google Maps Satellite view

 

Copyright © 2004-2018 Karl L. Swartz. All rights reserved.
The Great Circle Mapper name and logo are trademarks of the Great Circle Mapper.
All other trademarks mentioned herein belong to their respective owners.
Please see credits for attibutions and further copyright information.

  Follow gcmap on Facebook Follow gcmap on Twitter Follow gcmap on Google+ GCmap on LinkedIn

hCard Microformat

Geo Microformat